This is the latest recevied weather packets stored in our database for station/object OK1LPD-6. If no packets are shown the sender has not sent any weather packets the latest 10 day(s).
| Time | Temp. | Humidity | Pressure | Rain* | Wind** | Luminosity | Snow |
|---|---|---|---|---|---|---|---|
| 1777937090 | 16.11° C | 76% | 1010.5 hPa | 1.27 mm | - | - | - |
| 1777936511 | 16.67° C | 72% | 1010.6 hPa | 1.27 mm | - | - | - |
| 1777935891 | 16.67° C | 71% | 1010.3 hPa | 1.27 mm | - | - | - |
| 1777935290 | 16.67° C | 73% | 1010.7 hPa | 1.02 mm | - | - | - |
| 1777934708 | 16.67° C | 75% | 1011.4 hPa | 0.25 mm | - | - | - |
| 1777934090 | 16.67° C | 73% | 1011.8 hPa | 0 mm | - | - | - |
| 1777933491 | 17.22° C | 70% | 1011.9 hPa | 0 mm | - | - | - |
| 1777932910 | 17.78° C | 63% | 1012.5 hPa | 0 mm | - | - | - |
| 1777932290 | 17.22° C | 65% | 1012.4 hPa | 0 mm | - | - | - |
| 1777931690 | 16.67° C | 66% | 1012.3 hPa | 0 mm | - | - | - |
| 1777931108 | 16.67° C | 68% | 1011.7 hPa | 0 mm | - | - | - |
| 1777930491 | 16.67° C | 70% | 1011.3 hPa | 0 mm | - | - | - |
| 1777929891 | 16.67° C | 69% | 1011.2 hPa | 0 mm | - | - | - |
| 1777929311 | 16.67° C | 65% | 1011.2 hPa | 0 mm | - | - | - |
| 1777928692 | 16.67° C | 64% | 1011.3 hPa | 0 mm | - | - | - |
| 1777928091 | 17.22° C | 65% | 1011.3 hPa | 0 mm | - | - | - |
| 1777927509 | 17.22° C | 65% | 1011.3 hPa | 0 mm | - | - | - |
| 1777926891 | 17.22° C | 64% | 1011.4 hPa | 0 mm | - | - | - |
| 1777926291 | 17.22° C | 63% | 1011.3 hPa | 0 mm | - | - | - |
| 1777925712 | 17.78° C | 60% | 1011.3 hPa | 0 mm | - | - | - |
| 1777925092 | 17.78° C | 60% | 1011.5 hPa | 0 mm | - | - | - |
| 1777924492 | 17.78° C | 60% | 1011.5 hPa | 0 mm | - | - | - |
| 1777923912 | 17.78° C | 60% | 1011.4 hPa | 0 mm | - | - | - |
| 1777923293 | 17.78° C | 56% | 1011.3 hPa | 0 mm | - | - | - |
| 1777922692 | 17.78° C | 55% | 1011.3 hPa | 0 mm | - | - | - |
* Rain latest hour (hover to see other rain measurements)
** Current wind speed in m/s (hover to see current wind gust speed)